カタログに戻る

CZ-6A DEB

運用中PO
NORAD 55186·DEBRIS·🇨🇳 China

打ち上げ Nov 11, 2022 から Taiyuan Satellite Launch Center

Loading…

次のパス (今後24時間)

TLE

最新Source: Space-Track

元期: Sep 14, 2026, 02:52 UTC

1 55186U 22151VB  26257.11992260  .00004681  00000-0  91419-3 0  9994
2 55186  98.6390 323.8916 0067348  16.3864 343.9492 14.61999358194586

AllMySatでCZ-6A DEBをリアルタイム追跡

Download on the App Store